Location: Zabreh
(49.8800°N, 16.8800°E)
Time: 05:25:52
(UTC+01:00)

ISS - Visible Passes

Search period start: 12 December 2017 00:00
Search period end: 22 December 2017 00:00
Orbit: 403 x 407 km, 51.6° (Epoch: 12 December)

Date Brightness Start Highest point End Pass type
(mag) Time Alt. Az. Time Alt. Az. Time Alt. Az.
12 Dec -3.7 17:20:32 10° WNW 17:23:50 74° SSW 17:26:01 19° ESE visible
12 Dec -0.8 18:57:34 10° W 18:58:43 15° WSW 18:58:43 15° WSW visible
13 Dec -3.8 16:28:18 10° WNW 16:31:37 83° NNE 16:34:55 10° ESE visible
13 Dec -2.0 18:05:01 10° W 18:07:53 28° SW 18:09:07 22° S visible
14 Dec -2.7 17:12:38 10° WNW 17:15:47 43° SSW 17:18:55 10° SE visible
15 Dec -0.8 17:57:35 10° W 17:59:37 15° SW 18:01:38 10° S visible
16 Dec -1.4 17:04:51 10° W 17:07:35 24° SW 17:10:18 10° SSE visible
18 Dec -0.5 16:57:36 10° WSW 16:59:12 13° SW 17:00:48 10° SSW visible
